,,,PA_Meas_PMT16A,,PR_Meas_QMR101_102,,RH_Meas_QMH101,,SR_Meas_QMS101,,TA_Meas_QMH101,,GenWind,,GenWind,
date,time,status,PA,status,PR,status,RH,status,SR,status,TA,status,DirAvg,status,SpdAvg,
2008-11-09, 00:00:04,VALID,1007.96,VALID,0,VALID,94.3001,VALID,0,VALID,24.6294,VALID,356,VALID,0.226563,
2008-11-09, 00:01:04,VALID,1007.93,VALID,0,VALID,94.3534,VALID,0,VALID,24.6099,VALID,356,VALID,0.165625,
2008-11-09, 00:02:04,VALID,1007.92,VALID,0,VALID,94.3611,VALID,0,VALID,24.5905,VALID,356,VALID,0.264453,
2008-11-09, 00:03:04,VALID,1007.91,VALID,0,VALID,94.3611,VALID,0,VALID,24.5905,VALID,356,VALID,0.285547,
2008-11-09, 00:04:04,VALID,1007.9,VALID,0,VALID,94.3839,VALID,0,VALID,24.571,VALID,356,VALID,0.307422,
2008-11-09, 00:05:04,VALID,1007.86,VALID,0,VALID,94.3839,VALID,0,VALID,24.571,VALID,356,VALID,0.189844,
2008-11-09, 00:06:04,VALID,1007.84,VALID,0,VALID,94.4145,VALID,0,VALID,24.5515,VALID,356,VALID,0.214062,
2008-11-09, 00:07:04,VALID,1007.81,VALID,0,VALID,94.3916,VALID,0,VALID,24.5515,VALID,356,VALID,0.201953,
2008-11-09, 00:08:04,VALID,1007.82,VALID,0,VALID,94.445,VALID,0,VALID,24.5515,VALID,356,VALID,0.209766,
2008-11-09, 00:09:04,VALID,1007.8,VALID,0,VALID,94.445,VALID,0,VALID,24.5515,VALID,356,VALID,0.114844,
2008-11-09, 00:10:04,VALID,1007.78,VALID,0,VALID,94.4678,VALID,0,VALID,24.532,VALID,356,VALID,0.233984,
2008-11-09, 00:11:04,VALID,1007.79,VALID,0,VALID,94.4755,VALID,0,VALID,24.532,VALID,356,VALID,0.171484,
2008-11-09, 00:12:04,VALID,1007.8,VALID,0,VALID,94.4983,VALID,0,VALID,24.5125,VALID,356,VALID,0.155469,
2008-11-09, 00:13:04,VALID,1007.79,VALID,0,VALID,94.5136,VALID,0,VALID,24.5338,VALID,356,VALID,0.205859,
2008-11-09, 00:14:04,VALID,1007.79,VALID,0,VALID,94.5136,VALID,0,VALID,24.5125,VALID,356,VALID,0.160547,
2008-11-09, 00:15:04,VALID,1007.8,VALID,0,VALID,94.5365,VALID,0,VALID,24.493,VALID,356,VALID,0.154297,
2008-11-09, 00:16:04,VALID,1007.78,VALID,0,VALID,94.5517,VALID,0,VALID,24.5125,VALID,356,VALID,0,
2008-11-09, 00:17:04,VALID,1007.82,VALID,0,VALID,94.567,VALID,0,VALID,24.493,VALID,356,VALID,0.00078125,
2008-11-09, 00:18:04,VALID,1007.8,VALID,0,VALID,94.567,VALID,0,VALID,24.493,VALID,357,VALID,0.682422,
2008-11-09, 00:19:04,VALID,1007.79,VALID,0,VALID,94.5822,VALID,0,VALID,24.5125,VALID,357,VALID,0.136328,
2008-11-09, 00:20:04,VALID,1007.79,VALID,0,VALID,94.6127,VALID,0,VALID,24.493,VALID,357,VALID,0.113672,
2008-11-09, 00:21:04,VALID,1007.76,VALID,0,VALID,94.6203,VALID,0,VALID,24.493,VALID,357,VALID,0.144922,
2008-11-09, 00:22:04,VALID,1007.73,VALID,0,VALID,94.6203,VALID,0,VALID,24.493,VALID,357,VALID,0.123438,
2008-11-09, 00:23:04,VALID,1007.72,VALID,0,VALID,94.6127,VALID,0.105969,VALID,24.4698,VALID,357,VALID,0,
2008-11-09, 00:24:04,VALID,1007.7,VALID,0,VALID,94.6127,VALID,0.105969,VALID,24.4717,VALID,357,VALID,0,
2008-11-09, 00:25:04,VALID,1007.69,VALID,0,VALID,94.6356,VALID,0.105969,VALID,24.4911,VALID,357,VALID,0.0488281,
2008-11-09, 00:26:04,VALID,1007.68,VALID,0,VALID,94.6356,VALID,0.105969,VALID,24.4911,VALID,357,VALID,0.169922,
2008-11-09, 00:27:04,VALID,1007.68,VALID,0,VALID,94.6508,VALID,0.105969,VALID,24.4911,VALID,357,VALID,0,
2008-11-09, 00:28:04,VALID,1007.66,VALID,0,VALID,94.6508,VALID,0.105969,VALID,24.4503,VALID,357,VALID,0,
2008-11-09, 00:29:04,VALID,1007.62,VALID,0,VALID,94.6585,VALID,0.105969,VALID,24.4717,VALID,357,VALID,0.392578,
2008-11-09, 00:30:04,VALID,1007.62,VALID,0,VALID,94.6737,VALID,0.105969,VALID,24.4717,VALID,356,VALID,0.244531,
2008-11-09, 00:31:04,VALID,1007.63,VALID,0,VALID,94.6814,VALID,0.105969,VALID,24.4717,VALID,356,VALID,0,
2008-11-09, 00:32:04,VALID,1007.6,VALID,0,VALID,94.6737,VALID,0.105969,VALID,24.4717,VALID,356,VALID,0,
2008-11-09, 00:33:04,VALID,1007.59,VALID,0,VALID,94.6661,VALID,0.105969,VALID,24.4522,VALID,356,VALID,0,
2008-11-09, 00:34:04,VALID,1007.56,VALID,0,VALID,94.6966,VALID,0.105969,VALID,24.4522,VALID,356,VALID,0,
2008-11-09, 00:35:04,VALID,1007.53,VALID,0,VALID,94.6966,VALID,0.105969,VALID,24.4522,VALID,356,VALID,0,
2008-11-09, 00:36:04,VALID,1007.51,VALID,0,VALID,94.6814,VALID,0.105969,VALID,24.4327,VALID,356,VALID,0,
2008-11-09, 00:37:04,VALID,1007.49,VALID,0,VALID,94.6966,VALID,0,VALID,24.4522,VALID,357,VALID,0.197266,
2008-11-09, 00:38:04,VALID,1007.48,VALID,0,VALID,94.7195,VALID,0,VALID,24.454,VALID,357,VALID,0.0535156,
2008-11-09, 00:39:04,VALID,1007.48,VALID,0,VALID,94.7195,VALID,0,VALID,24.4327,VALID,357,VALID,0.156641,
2008-11-09, 00:40:04,VALID,1007.45,VALID,0,VALID,94.7042,VALID,0,VALID,24.454,VALID,357,VALID,0.0457031,
2008-11-09, 00:41:04,VALID,1007.46,VALID,0,VALID,94.7119,VALID,0,VALID,24.4345,VALID,357,VALID,0.0640625,
2008-11-09, 00:42:04,VALID,1007.44,VALID,0,VALID,94.7271,VALID,0,VALID,24.4345,VALID,357,VALID,0.238672,
2008-11-09, 00:43:04,VALID,1007.42,VALID,0,VALID,94.7042,VALID,0.105969,VALID,24.4345,VALID,357,VALID,0.0984375,
2008-11-09, 00:44:04,VALID,1007.43,VALID,0,VALID,94.7347,VALID,0,VALID,24.4345,VALID,357,VALID,0.0832031,
2008-11-09, 00:45:04,VALID,1007.43,VALID,0,VALID,94.7347,VALID,0,VALID,24.454,VALID,357,VALID,0.00429688,
2008-11-09, 00:46:04,VALID,1007.41,VALID,0,VALID,94.75,VALID,0,VALID,24.4345,VALID,357,VALID,0.0636719,
2008-11-09, 00:47:04,VALID,1007.44,VALID,0,VALID,94.75,VALID,0,VALID,24.4345,VALID,357,VALID,0.0148437,
2008-11-09, 00:48:04,VALID,1007.42,VALID,0,VALID,94.7805,VALID,0,VALID,24.4345,VALID,357,VALID,0,
2008-11-09, 00:49:04,VALID,1007.43,VALID,0,VALID,94.7652,VALID,0,VALID,24.454,VALID,2,VALID,0.326172,
2008-11-09, 00:50:04,VALID,1007.43,VALID,0,VALID,94.7957,VALID,0,VALID,24.454,VALID,3,VALID,0.0492188,
2008-11-09, 00:51:04,VALID,1007.41,VALID,0,VALID,94.7652,VALID,0,VALID,24.454,VALID,3,VALID,0.235547,
2008-11-09, 00:52:04,VALID,1007.42,VALID,0,VALID,94.811,VALID,0,VALID,24.4327,VALID,25,VALID,0.470703,
2008-11-09, 00:53:04,VALID,1007.42,VALID,0,VALID,94.811,VALID,0,VALID,24.4132,VALID,25,VALID,0.483984,
2008-11-09, 00:54:04,VALID,1007.42,VALID,0,VALID,94.8034,VALID,0,VALID,24.454,VALID,10,VALID,0.181641,
2008-11-09, 00:55:04,VALID,1007.41,VALID,0,VALID,94.8186,VALID,0,VALID,24.4345,VALID,10,VALID,0.35625,
2008-11-09, 00:56:04,VALID,1007.39,VALID,0,VALID,94.8339,VALID,0,VALID,24.4132,VALID,10,VALID,0.166406,
2008-11-09, 00:57:04,VALID,1007.39,VALID,0,VALID,94.8415,VALID,0,VALID,24.4345,VALID,359,VALID,0.172266,
2008-11-09, 00:58:04,VALID,1007.37,VALID,0,VALID,94.8415,VALID,0,VALID,24.454,VALID,359,VALID,0.00195313,
2008-11-09, 00:59:04,VALID,1007.37,VALID,0,VALID,94.8339,VALID,0,VALID,24.4345,VALID,359,VALID,0.009375,
2008-11-09, 01:00:04,VALID,1007.36,VALID,0,VALID,94.8568,VALID,0,VALID,24.454,VALID,359,VALID,0,
2008-11-09, 01:01:04,VALID,1007.37,VALID,0,VALID,94.8568,VALID,0,VALID,24.454,VALID,359,VALID,0,
2008-11-09, 01:02:04,VALID,1007.37,VALID,0,VALID,94.8796,VALID,0,VALID,24.4345,VALID,359,VALID,0,
2008-11-09, 01:03:04,VALID,1007.38,VALID,0,VALID,94.872,VALID,0,VALID,24.4345,VALID,359,VALID,0,
2008-11-09, 01:04:04,VALID,1007.37,VALID,0,VALID,94.8644,VALID,0,VALID,24.4345,VALID,359,VALID,0,
2008-11-09, 01:05:04,VALID,1007.38,VALID,0,VALID,94.872,VALID,0,VALID,24.4345,VALID,359,VALID,0.192578,
2008-11-09, 01:06:04,VALID,1007.38,VALID,0,VALID,94.872,VALID,0,VALID,24.4345,VALID,359,VALID,0,
2008-11-09, 01:07:04,VALID,1007.37,VALID,0,VALID,94.8949,VALID,0,VALID,24.4327,VALID,359,VALID,0,
2008-11-09, 01:08:04,VALID,1007.36,VALID,0,VALID,94.872,VALID,0,VALID,24.4345,VALID,359,VALID,0,
2008-11-09, 01:09:04,VALID,1007.33,VALID,0,VALID,94.8873,VALID,0,VALID,24.4345,VALID,359,VALID,0.00117188,
2008-11-09, 01:10:04,VALID,1007.37,VALID,0,VALID,94.9101,VALID,0,VALID,24.454,VALID,359,VALID,0,
2008-11-09, 01:11:04,VALID,1007.38,VALID,0,VALID,94.9101,VALID,0,VALID,24.4522,VALID,18,VALID,0,
2008-11-09, 01:12:04,VALID,1007.38,VALID,0,VALID,94.9254,VALID,0,VALID,24.4735,VALID,34,VALID,0.121094,
2008-11-09, 01:13:04,VALID,1007.4,VALID,0,VALID,94.9178,VALID,0.105969,VALID,24.4522,VALID,74,VALID,0.357812,
2008-11-09, 01:14:04,VALID,1007.38,VALID,0,VALID,94.9025,VALID,0,VALID,24.454,VALID,74,VALID,0.134375,
2008-11-09, 01:15:04,VALID,1007.37,VALID,0,VALID,94.9101,VALID,0.105969,VALID,24.454,VALID,74,VALID,0.270312,
2008-11-09, 01:16:04,VALID,1007.38,VALID,0,VALID,94.9101,VALID,0,VALID,24.4132,VALID,74,VALID,0.287109,
2008-11-09, 01:17:04,VALID,1007.38,VALID,0,VALID,94.9025,VALID,0,VALID,24.4345,VALID,74,VALID,0.282031,
2008-11-09, 01:18:04,VALID,1007.38,VALID,0,VALID,94.9101,VALID,0,VALID,24.4345,VALID,74,VALID,0.198437,
2008-11-09, 01:19:04,VALID,1007.36,VALID,0,VALID,94.8873,VALID,0,VALID,24.415,VALID,74,VALID,0,
2008-11-09, 01:20:04,VALID,1007.39,VALID,0,VALID,94.872,VALID,0.105969,VALID,24.415,VALID,74,VALID,0,
2008-11-09, 01:21:04,VALID,1007.4,VALID,0,VALID,94.8873,VALID,0.105969,VALID,24.3956,VALID,74,VALID,0,
2008-11-09, 01:22:04,VALID,1007.39,VALID,0,VALID,94.8796,VALID,0,VALID,24.3956,VALID,74,VALID,0,
2008-11-09, 01:23:04,VALID,1007.43,VALID,0,VALID,94.8644,VALID,0.105969,VALID,24.3956,VALID,74,VALID,0.329688,
2008-11-09, 01:24:04,VALID,1007.42,VALID,0,VALID,94.8873,VALID,0,VALID,24.3761,VALID,74,VALID,0.441016,
2008-11-09, 01:25:04,VALID,1007.4,VALID,0,VALID,94.872,VALID,0,VALID,24.3956,VALID,74,VALID,0.366016,
2008-11-09, 01:26:04,VALID,1007.39,VALID,0,VALID,94.872,VALID,0,VALID,24.3547,VALID,74,VALID,0.371875,
2008-11-09, 01:27:04,VALID,1007.43,VALID,0,VALID,94.8873,VALID,0,VALID,24.3742,VALID,74,VALID,0.296875,
2008-11-09, 01:28:04,VALID,1007.41,VALID,0,VALID,94.8796,VALID,0,VALID,24.3742,VALID,74,VALID,0.299219,
2008-11-09, 01:29:04,VALID,1007.39,VALID,0,VALID,94.8568,VALID,0.105969,VALID,24.3956,VALID,74,VALID,0.164844,
2008-11-09, 01:30:04,VALID,1007.4,VALID,0,VALID,94.8568,VALID,0.105969,VALID,24.3547,VALID,74,VALID,0.137891,
2008-11-09, 01:31:04,VALID,1007.38,VALID,0,VALID,94.8415,VALID,0.105969,VALID,24.3547,VALID,74,VALID,0.00195313,
2008-11-09, 01:32:04,VALID,1007.37,VALID,0,VALID,94.8491,VALID,0,VALID,24.415,VALID,74,VALID,0.0226563,
2008-11-09, 01:33:04,VALID,1007.33,VALID,0,VALID,94.8491,VALID,0,VALID,24.3566,VALID,74,VALID,0,
2008-11-09, 01:34:04,VALID,1007.35,VALID,0,VALID,94.8415,VALID,0.105969,VALID,24.3352,VALID,74,VALID,0,
2008-11-09, 01:35:04,VALID,1007.3,VALID,0,VALID,94.8262,VALID,0,VALID,24.3566,VALID,74,VALID,0.046875,
2008-11-09, 01:36:04,VALID,1007.26,VALID,0,VALID,94.8415,VALID,0,VALID,24.3158,VALID,74,VALID,0,
2008-11-09, 01:37:04,VALID,1007.23,VALID,0,VALID,94.8339,VALID,0.105969,VALID,24.3371,VALID,74,VALID,0.0117188,
2008-11-09, 01:38:04,VALID,1007.22,VALID,0,VALID,94.8186,VALID,0,VALID,24.3158,VALID,74,VALID,0,
2008-11-09, 01:39:04,VALID,1007.2,VALID,0,VALID,94.8186,VALID,0.105969,VALID,24.3158,VALID,74,VALID,0,
2008-11-09, 01:40:04,VALID,1007.17,VALID,0,VALID,94.8186,VALID,0,VALID,24.2981,VALID,74,VALID,0,
2008-11-09, 01:41:04,VALID,1007.18,VALID,0,VALID,94.8415,VALID,0,VALID,24.3176,VALID,74,VALID,0,
2008-11-09, 01:42:04,VALID,1007.16,VALID,0,VALID,94.8339,VALID,0,VALID,24.3176,VALID,74,VALID,0,
2008-11-09, 01:43:04,VALID,1007.14,VALID,0,VALID,94.811,VALID,0,VALID,24.2981,VALID,74,VALID,0,
2008-11-09, 01:44:04,VALID,1007.11,VALID,0,VALID,94.8186,VALID,0,VALID,24.2786,VALID,74,VALID,0,
2008-11-09, 01:45:04,VALID,1007.1,VALID,0,VALID,94.8262,VALID,0,VALID,24.2591,VALID,74,VALID,0,
2008-11-09, 01:46:04,VALID,1007.1,VALID,0,VALID,94.811,VALID,0,VALID,24.2591,VALID,74,VALID,0,
2008-11-09, 01:47:04,VALID,1007.05,VALID,0,VALID,94.7957,VALID,0,VALID,24.2396,VALID,74,VALID,0,
2008-11-09, 01:48:04,VALID,1007.06,VALID,0,VALID,94.7957,VALID,0,VALID,24.2396,VALID,74,VALID,0.0757812,
2008-11-09, 01:49:04,VALID,1007.04,VALID,0,VALID,94.8262,VALID,0,VALID,24.2396,VALID,74,VALID,0,
2008-11-09, 01:50:04,VALID,1007.02,VALID,0,VALID,94.811,VALID,0,VALID,24.2202,VALID,74,VALID,0,
2008-11-09, 01:51:04,VALID,1007.05,VALID,0,VALID,94.8186,VALID,0,VALID,24.2202,VALID,74,VALID,0,
2008-11-09, 01:52:04,VALID,1007.04,VALID,0,VALID,94.811,VALID,0,VALID,24.2007,VALID,74,VALID,0,
2008-11-09, 01:53:04,VALID,1007.07,VALID,0,VALID,94.8262,VALID,0,VALID,24.2202,VALID,74,VALID,0,
2008-11-09, 01:54:04,VALID,1007.07,VALID,0,VALID,94.8339,VALID,0,VALID,24.2007,VALID,74,VALID,0,
2008-11-09, 01:55:04,VALID,1007.08,VALID,0,VALID,94.8415,VALID,0,VALID,24.1988,VALID,74,VALID,0.2625,
2008-11-09, 01:56:04,VALID,1007.05,VALID,0,VALID,94.8644,VALID,0,VALID,24.2007,VALID,74,VALID,0.316016,
2008-11-09, 01:57:04,VALID,1007.06,VALID,0,VALID,94.8644,VALID,0,VALID,24.2007,VALID,74,VALID,0.216016,
2008-11-09, 01:58:04,VALID,1007.06,VALID,0,VALID,94.8568,VALID,0,VALID,24.1812,VALID,74,VALID,0.290234,
2008-11-09, 01:59:04,VALID,1007,VALID,0,VALID,94.8644,VALID,0,VALID,24.2007,VALID,74,VALID,0.215625,
2008-11-09, 02:00:04,VALID,1006.97,VALID,0,VALID,94.8949,VALID,0,VALID,24.1812,VALID,74,VALID,0.163672,
2008-11-09, 02:01:04,VALID,1006.94,VALID,0,VALID,94.8644,VALID,0,VALID,24.1812,VALID,74,VALID,0,
2008-11-09, 02:02:04,VALID,1006.93,VALID,0,VALID,94.9025,VALID,0,VALID,24.2007,VALID,74,VALID,0.05625,
2008-11-09, 02:03:04,VALID,1006.91,VALID,0,VALID,94.9025,VALID,0,VALID,24.2202,VALID,36,VALID,0.322656,
2008-11-09, 02:04:04,VALID,1006.91,VALID,0,VALID,94.933,VALID,0,VALID,24.2007,VALID,36,VALID,0.0308594,
2008-11-09, 02:05:04,VALID,1006.92,VALID,0,VALID,94.9406,VALID,0,VALID,24.2007,VALID,36,VALID,0.071875,
2008-11-09, 02:06:04,VALID,1006.93,VALID,0,VALID,94.9406,VALID,0,VALID,24.2007,VALID,36,VALID,0.0699219,
2008-11-09, 02:07:04,VALID,1006.94,VALID,0,VALID,94.9406,VALID,0,VALID,24.2202,VALID,36,VALID,0.183594,
2008-11-09, 02:08:04,VALID,1006.95,VALID,0,VALID,94.9483,VALID,0,VALID,24.2202,VALID,36,VALID,0,
2008-11-09, 02:09:04,VALID,1006.96,VALID,0,VALID,94.9635,VALID,0,VALID,24.2202,VALID,36,VALID,0,
2008-11-09, 02:10:04,VALID,1006.98,VALID,0,VALID,94.9788,VALID,0,VALID,24.2396,VALID,36,VALID,0.0015625,
2008-11-09, 02:11:04,VALID,1006.97,VALID,0,VALID,95.0093,VALID,0,VALID,24.2591,VALID,34,VALID,0.385938,
2008-11-09, 02:12:04,VALID,1006.95,VALID,0,VALID,95.0169,VALID,0,VALID,24.2786,VALID,33,VALID,0.0210938,
2008-11-09, 02:13:04,VALID,1006.96,VALID,0,VALID,95.0169,VALID,0,VALID,24.2786,VALID,33,VALID,0.0398437,
2008-11-09, 02:14:04,VALID,1006.96,VALID,0,VALID,95.0321,VALID,0,VALID,24.2591,VALID,33,VALID,0,
2008-11-09, 02:15:04,VALID,1006.94,VALID,0,VALID,95.0321,VALID,0,VALID,24.2786,VALID,33,VALID,0.0609375,
2008-11-09, 02:16:04,VALID,1006.96,VALID,0,VALID,95.0321,VALID,0,VALID,24.2786,VALID,33,VALID,0.101563,
2008-11-09, 02:17:04,VALID,1006.99,VALID,0,VALID,95.0398,VALID,0,VALID,24.2981,VALID,8,VALID,0,
2008-11-09, 02:18:04,VALID,1007,VALID,0,VALID,95.0703,VALID,0,VALID,24.2981,VALID,2,VALID,0.0398437,
2008-11-09, 02:19:04,VALID,1007.03,VALID,0,VALID,95.0626,VALID,0,VALID,24.2981,VALID,2,VALID,0.00390625,
2008-11-09, 02:20:04,VALID,1007.03,VALID,0,VALID,95.1008,VALID,0,VALID,24.3176,VALID,26,VALID,0.24375,
2008-11-09, 02:21:04,VALID,1007.03,VALID,0,VALID,95.1084,VALID,0,VALID,24.3371,VALID,29,VALID,0.00898437,
2008-11-09, 02:22:04,VALID,1007.03,VALID,0,VALID,95.1084,VALID,0,VALID,24.3371,VALID,28,VALID,0.158203,
2008-11-09, 02:23:04,VALID,1007.02,VALID,0,VALID,95.1008,VALID,0,VALID,24.3566,VALID,28,VALID,0,
2008-11-09, 02:24:04,VALID,1007.02,VALID,0,VALID,95.0931,VALID,0,VALID,24.3566,VALID,28,VALID,0,
2008-11-09, 02:25:04,VALID,1007.06,VALID,0,VALID,95.0931,VALID,0,VALID,24.3566,VALID,28,VALID,0,
2008-11-09, 02:26:04,VALID,1007.08,VALID,0,VALID,95.0779,VALID,0,VALID,24.3352,VALID,28,VALID,0,
2008-11-09, 02:27:04,VALID,1007.07,VALID,0,VALID,95.1084,VALID,0,VALID,24.3371,VALID,28,VALID,0,
2008-11-09, 02:28:04,VALID,1007.07,VALID,0,VALID,95.1084,VALID,0,VALID,24.3352,VALID,28,VALID,0,
2008-11-09, 02:29:04,VALID,1007.07,VALID,0,VALID,95.0931,VALID,0,VALID,24.3371,VALID,28,VALID,0,
2008-11-09, 02:30:04,VALID,1007.05,VALID,0,VALID,95.1084,VALID,0,VALID,24.3761,VALID,28,VALID,0,
2008-11-09, 02:31:04,VALID,1007.02,VALID,0,VALID,95.0779,VALID,0,VALID,24.3371,VALID,28,VALID,0,
2008-11-09, 02:32:04,VALID,1007.02,VALID,0,VALID,95.0931,VALID,0,VALID,24.3176,VALID,28,VALID,0,
2008-11-09, 02:33:04,VALID,1006.99,VALID,0,VALID,95.0931,VALID,0,VALID,24.2963,VALID,28,VALID,0,
2008-11-09, 02:34:04,VALID,1006.96,VALID,0,VALID,95.1008,VALID,0,VALID,24.2768,VALID,28,VALID,0,
2008-11-09, 02:35:04,VALID,1006.96,VALID,0,VALID,95.1236,VALID,0,VALID,24.2786,VALID,28,VALID,0,
2008-11-09, 02:36:04,VALID,1006.95,VALID,0,VALID,95.0931,VALID,0,VALID,24.2981,VALID,28,VALID,0,
2008-11-09, 02:37:04,VALID,1006.91,VALID,0,VALID,95.1008,VALID,0,VALID,24.2981,VALID,28,VALID,0,
2008-11-09, 02:38:04,VALID,1006.92,VALID,0,VALID,95.1008,VALID,0,VALID,24.2981,VALID,28,VALID,0,
2008-11-09, 02:39:04,VALID,1006.92,VALID,0,VALID,95.1084,VALID,0,VALID,24.3176,VALID,28,VALID,0,
2008-11-09, 02:40:04,VALID,1006.91,VALID,0,VALID,95.116,VALID,0,VALID,24.3176,VALID,28,VALID,0,
2008-11-09, 02:41:04,VALID,1006.9,VALID,0,VALID,95.116,VALID,0,VALID,24.3176,VALID,30,VALID,0,
2008-11-09, 02:42:04,VALID,1006.91,VALID,0,VALID,95.1389,VALID,0,VALID,24.3371,VALID,64,VALID,0,
2008-11-09, 02:43:04,VALID,1006.9,VALID,0,VALID,95.1313,VALID,0,VALID,24.3352,VALID,105,VALID,0.542969,
2008-11-09, 02:44:04,VALID,1006.9,VALID,0,VALID,95.1313,VALID,0,VALID,24.3566,VALID,105,VALID,0.450781,
2008-11-09, 02:45:04,VALID,1006.89,VALID,0,VALID,95.1313,VALID,0,VALID,24.3761,VALID,105,VALID,0.495703,
2008-11-09, 02:46:04,VALID,1006.89,VALID,0,VALID,95.1389,VALID,0,VALID,24.3761,VALID,100,VALID,0.427344,
2008-11-09, 02:47:04,VALID,1006.9,VALID,0,VALID,95.1313,VALID,0,VALID,24.3761,VALID,94,VALID,0.328906,
2008-11-09, 02:48:04,VALID,1006.91,VALID,0,VALID,95.1313,VALID,0,VALID,24.3761,VALID,94,VALID,0.150391,
2008-11-09, 02:49:04,VALID,1006.91,VALID,0,VALID,95.1313,VALID,0,VALID,24.3566,VALID,94,VALID,0.225,
2008-11-09, 02:50:04,VALID,1006.91,VALID,0,VALID,95.1465,VALID,0,VALID,24.3352,VALID,94,VALID,0.0945313,
2008-11-09, 02:51:04,VALID,1006.92,VALID,0,VALID,95.1313,VALID,0,VALID,24.3158,VALID,94,VALID,0,
2008-11-09, 02:52:04,VALID,1006.93,VALID,0,VALID,95.1313,VALID,0,VALID,24.3352,VALID,94,VALID,0,
2008-11-09, 02:53:04,VALID,1006.93,VALID,0,VALID,95.116,VALID,0,VALID,24.3566,VALID,83,VALID,0.214062,
2008-11-09, 02:54:04,VALID,1006.91,VALID,0,VALID,95.116,VALID,0,VALID,24.3371,VALID,83,VALID,0.178516,
2008-11-09, 02:55:04,VALID,1006.92,VALID,0,VALID,95.1084,VALID,0,VALID,24.2963,VALID,83,VALID,0.0183594,
2008-11-09, 02:56:04,VALID,1006.93,VALID,0,VALID,95.116,VALID,0.105969,VALID,24.3158,VALID,68,VALID,0.305469,
2008-11-09, 02:57:04,VALID,1006.92,VALID,0,VALID,95.1084,VALID,0,VALID,24.3158,VALID,68,VALID,0.122656,
2008-11-09, 02:58:04,VALID,1006.91,VALID,0,VALID,95.1236,VALID,0,VALID,24.3158,VALID,68,VALID,0,
2008-11-09, 02:59:04,VALID,1006.92,VALID,0,VALID,95.1236,VALID,0,VALID,24.3158,VALID,68,VALID,0.00429688,
2008-11-09, 03:00:04,VALID,1006.91,VALID,0,VALID,95.1008,VALID,0.105969,VALID,24.3371,VALID,68,VALID,0,
2008-11-09, 03:01:04,VALID,1006.91,VALID,0,VALID,95.0931,VALID,0.105969,VALID,24.3176,VALID,68,VALID,0,
2008-11-09, 03:02:04,VALID,1006.92,VALID,0,VALID,95.1008,VALID,0.105969,VALID,24.2768,VALID,68,VALID,0,
2008-11-09, 03:03:04,VALID,1006.92,VALID,0,VALID,95.0931,VALID,0,VALID,24.2768,VALID,68,VALID,0,
2008-11-09, 03:04:04,VALID,1006.92,VALID,0,VALID,95.0931,VALID,0,VALID,24.2768,VALID,68,VALID,0.194531,
2008-11-09, 03:05:04,VALID,1006.92,VALID,0,VALID,95.0931,VALID,0,VALID,24.2573,VALID,68,VALID,0.129688,
2008-11-09, 03:06:04,VALID,1006.91,VALID,0,VALID,95.0931,VALID,0,VALID,24.3176,VALID,68,VALID,0.210156,
2008-11-09, 03:07:04,VALID,1006.89,VALID,0,VALID,95.1008,VALID,0,VALID,24.2963,VALID,68,VALID,0.271484,
2008-11-09, 03:08:04,VALID,1006.91,VALID,0,VALID,95.1084,VALID,0,VALID,24.3158,VALID,68,VALID,0.483984,
2008-11-09, 03:09:04,VALID,1006.86,VALID,0,VALID,95.1084,VALID,0,VALID,24.3371,VALID,68,VALID,0.184375,
2008-11-09, 03:10:04,VALID,1006.85,VALID,0,VALID,95.0931,VALID,0,VALID,24.3371,VALID,68,VALID,0.267188,
2008-11-09, 03:11:04,VALID,1006.86,VALID,0,VALID,95.1084,VALID,0,VALID,24.3158,VALID,86,VALID,0.145313,
2008-11-09, 03:12:04,VALID,1006.82,VALID,0,VALID,95.1236,VALID,0,VALID,24.3566,VALID,86,VALID,0.229687,
2008-11-09, 03:13:04,VALID,1006.84,VALID,0,VALID,95.1236,VALID,0.105969,VALID,24.3352,VALID,86,VALID,0.340234,
2008-11-09, 03:14:04,VALID,1006.8,VALID,0,VALID,95.116,VALID,0.105969,VALID,24.3547,VALID,88,VALID,0.5125,
2008-11-09, 03:15:04,VALID,1006.8,VALID,0,VALID,95.116,VALID,0,VALID,24.3761,VALID,88,VALID,0.285937,
2008-11-09, 03:16:04,VALID,1006.79,VALID,0,VALID,95.1236,VALID,0,VALID,24.3761,VALID,88,VALID,0.0898438,
2008-11-09, 03:17:04,VALID,1006.8,VALID,0,VALID,95.1084,VALID,0,VALID,24.3547,VALID,88,VALID,0.125781,
2008-11-09, 03:18:04,VALID,1006.79,VALID,0,VALID,95.1236,VALID,0,VALID,24.3547,VALID,88,VALID,0,
2008-11-09, 03:19:04,VALID,1006.76,VALID,0,VALID,95.116,VALID,0,VALID,24.3547,VALID,88,VALID,0,
2008-11-09, 03:20:04,VALID,1006.76,VALID,0,VALID,95.1084,VALID,0,VALID,24.3956,VALID,88,VALID,0,
2008-11-09, 03:21:04,VALID,1006.75,VALID,0,VALID,95.0931,VALID,0.105969,VALID,24.3742,VALID,86,VALID,0.084375,
2008-11-09, 03:22:04,VALID,1006.73,VALID,0,VALID,95.0931,VALID,0,VALID,24.3761,VALID,86,VALID,0.242969,
2008-11-09, 03:23:04,VALID,1006.73,VALID,0,VALID,95.116,VALID,0,VALID,24.3761,VALID,86,VALID,0.253906,
2008-11-09, 03:24:04,VALID,1006.74,VALID,0,VALID,95.1008,VALID,0,VALID,24.3566,VALID,86,VALID,0.00585938,
2008-11-09, 03:25:04,VALID,1006.71,VALID,0,VALID,95.0855,VALID,0,VALID,24.3761,VALID,77,VALID,0.250781,
2008-11-09, 03:26:04,VALID,1006.73,VALID,0,VALID,95.0931,VALID,0,VALID,24.3371,VALID,77,VALID,0,
2008-11-09, 03:27:04,VALID,1006.73,VALID,0,VALID,95.0779,VALID,0,VALID,24.3371,VALID,77,VALID,0.0296875,
2008-11-09, 03:28:04,VALID,1006.72,VALID,0,VALID,95.0703,VALID,0,VALID,24.3371,VALID,77,VALID,0.239063,
2008-11-09, 03:29:04,VALID,1006.73,VALID,0,VALID,95.0626,VALID,0,VALID,24.3566,VALID,77,VALID,0.0324219,
2008-11-09, 03:30:04,VALID,1006.73,VALID,0,VALID,95.0779,VALID,0,VALID,24.3566,VALID,77,VALID,0.200781,
2008-11-09, 03:31:04,VALID,1006.75,VALID,0,VALID,95.0779,VALID,0.105969,VALID,24.3352,VALID,77,VALID,0,
2008-11-09, 03:32:04,VALID,1006.76,VALID,0,VALID,95.0779,VALID,0,VALID,24.3566,VALID,90,VALID,0.580859,
2008-11-09, 03:33:04,VALID,1006.78,VALID,0,VALID,95.0703,VALID,0,VALID,24.3566,VALID,98,VALID,0.564062,
2008-11-09, 03:34:04,VALID,1006.78,VALID,0,VALID,95.0626,VALID,0,VALID,24.3566,VALID,98,VALID,0.575,
2008-11-09, 03:35:04,VALID,1006.79,VALID,0,VALID,95.0398,VALID,0,VALID,24.3566,VALID,98,VALID,0.411328,
2008-11-09, 03:36:04,VALID,1006.79,VALID,0,VALID,95.0626,VALID,0,VALID,24.3547,VALID,98,VALID,0.487891,
2008-11-09, 03:37:04,VALID,1006.8,VALID,0,VALID,95.0703,VALID,0,VALID,24.3566,VALID,92,VALID,0.517969,
2008-11-09, 03:38:04,VALID,1006.81,VALID,0,VALID,95.0321,VALID,0,VALID,24.3547,VALID,90,VALID,0.392578,
2008-11-09, 03:39:04,VALID,1006.81,VALID,0,VALID,95.0093,VALID,0,VALID,24.3566,VALID,90,VALID,0.3375,
2008-11-09, 03:40:04,VALID,1006.78,VALID,0,VALID,95.0169,VALID,0,VALID,24.3566,VALID,90,VALID,0.319531,
2008-11-09, 03:41:04,VALID,1006.78,VALID,0,VALID,95.0016,VALID,0,VALID,24.3761,VALID,89,VALID,0.334766,
2008-11-09, 03:42:04,VALID,1006.78,VALID,0,VALID,95.0016,VALID,0,VALID,24.3566,VALID,85,VALID,0.38125,
2008-11-09, 03:43:04,VALID,1006.8,VALID,0,VALID,94.9711,VALID,0,VALID,24.3371,VALID,82,VALID,0.294922,
2008-11-09, 03:44:04,VALID,1006.79,VALID,0,VALID,94.9788,VALID,0,VALID,24.3158,VALID,64,VALID,0.289844,
2008-11-09, 03:45:04,VALID,1006.82,VALID,0,VALID,94.9406,VALID,0,VALID,24.3176,VALID,63,VALID,0.366406,
2008-11-09, 03:46:04,VALID,1006.79,VALID,0,VALID,94.9406,VALID,0,VALID,24.2963,VALID,63,VALID,0.162891,
2008-11-09, 03:47:04,VALID,1006.83,VALID,0,VALID,94.9406,VALID,0,VALID,24.2981,VALID,63,VALID,0.0878906,
2008-11-09, 03:48:04,VALID,1006.83,VALID,0,VALID,94.9178,VALID,0,VALID,24.2573,VALID,63,VALID,0,